[[{"header":{"parameterUnit":"m.s-1","parameterCategory":1,"la1":30.2991,"la2":30.254,"lo1":-89.0895,"lo2":-89.0444,"dy":0.0017,"dx":0.0017,"nx":28,"ny":28,"refTime":"2025-03-07T09:00:00:Z","depth":0,"parameterNumber":2,"parameterNumberName":"U-component_of_WINDS"},"data":[0,0,0,0,0,0,0,0,0,0,0,0,0,0,0,0,0,0,0,0,0,0,0,0,0,0,0,0,0,0,0,0,0,0,0,0,0,0,0,0,0,0,0,0,0,0,0,0,0,0,0,0,0,0,0,0,0,0,-3.3305,-3.3305,0,-3.333,-3.333,-3.3331,-3.3251,-3.3249,-3.3246,-3.3244,-3.327,-3.3273,-3.3276,0,0,0,0,0,0,0,0,0,0,0,0,0,-3.3188,-3.319,-3.3305,-3.3305,-3.3305,-3.333,-3.333,-3.3331,-3.3252,-3.3249,-3.3246,-3.3243,-3.3269,-3.3272,-3.3276,0,0,0,0,0,0,0,0,0,0,0,0,0,-3.3228,-3.3191,-3.3305,-3.3269,-3.3266,-3.333,-3.3331,-3.3331,-3.3252,-3.3249,-3.3245,-3.3242,-3.3268,-3.3272,-3.3276,-3.3376,0,0,-3.329,-3.3292,0,0,0,0,0,0,0,0,-3.3226,-3.3233,-3.3274,-3.3271,-3.3268,-3.3284,-3.3298,-3.3346,-3.3253,-3.3257,-3.3244,-3.324,-3.3277,-3.3281,-3.3293,-3.3377,-3.3378,-3.329,-3.3293,-3.3295,-3.3296,0,0,0,0,0,0,0,-3.3223,-3.3231,-3.3315,-3.3274,-3.3271,-3.3251,-3.3253,-3.3307,-3.3287,-3.3257,-3.3251,-3.3255,-3.3275,-3.3289,-3.3293,-3.3379,-3.329,-3.3294,-3.3297,-3.3298,-3.3546,-3.355,0,0,0,0,0,0,-3.3225,-3.3229,-3.3314,-3.3315,-3.3238,-3.3257,-3.3258,-3.3282,-3.3287,-3.3284,-3.3258,-3.3251,-3.3284,-3.3288,-3.3294,-3.3411,-3.3295,-3.3299,-3.3301,-3.3542,-3.3547,-3.3551,0,0,0,0,0,0,-3.3223,-3.3234,-3.3313,-3.3271,-3.328,-3.3262,-3.329,-3.3285,-3.3299,-3.3288,-3.3284,-3.3276,-3.3281,-3.3288,-3.3356,-3.341,-3.3301,-3.3305,-3.3537,-3.3543,-3.3549,-3.3645,0,0,0,0,0,0,-3.322,-3.3233,-3.3271,-3.3272,-3.3282,-3.3375,-3.3293,-3.3288,-3.3307,-3.3298,-3.3304,-3.3301,-3.3279,-3.335,-3.3361,-3.3415,-3.3308,-3.3532,-3.354,-3.3547,-3.3637,-3.3654,-3.3668,0,0,0,0,0,-3.3216,-3.3297,-3.3273,-3.3284,-3.3329,-3.3378,-3.3384,-3.3356,-3.3312,-3.3349,-3.3342,-3.3301,-3.3403,-3.3358,-3.3369,-3.3425,-3.3529,-3.3538,-3.3546,-3.363,-3.3651,-3.3668,0,0,0,0,0,0,-3.3302,-3.3297,-3.327,-3.3354,-3.3367,-3.3365,-3.3411,-3.3379,-3.3405,-3.3395,-3.336,-3.3362,-3.3437,-3.3438,-3.3387,-3.3522,-3.3458,-3.347,-3.3518,-3.3537,-3.3553,-3.355,-3.3312,0,0,0,0,0,-3.3331,-3.3372,-3.3365,-3.3439,-3.3447,-3.3429,-3.3449,-3.3427,-3.3439,-3.3444,-3.3442,-3.3456,-3.349,-3.3514,-3.3546,-3.3638,-3.3637,-3.3682,-3.3697,-3.371,-3.372,-3.3768,-3.3787,-3.358,-3.358,-3.358,0,0,-3.3391,-3.3393,-3.342,-3.3457,-3.3464,-3.3507,-3.3434,-3.3482,-3.3513,-3.3451,-3.3516,-3.3515,-3.3528,-3.3608,-3.3644,-3.3611,-3.3777,-3.3721,-3.3731,-3.3734,-3.3779,-3.3799,-3.3816,-3.3586,-3.3585,-3.3584,0,0,-3.3521,-3.3527,-3.359,-3.3599,-3.3612,-3.3599,-3.3614,-3.3617,-3.3614,-3.3678,-3.3633,-3.367,-3.3731,-3.3742,-3.3755,-3.3891,-3.3854,-3.3903,-3.3982,-3.403,-3.4046,-3.406,-3.4108,-3.4126,-3.3913,-3.3913,-3.3913,0,-3.3593,-3.3656,-3.3626,-3.3678,-3.3695,-3.3642,-3.3705,-3.3715,-3.3738,-3.3751,-3.3715,-3.379,-3.3795,-3.3877,-3.3911,-3.3924,-3.394,-3.3901,-3.4046,-3.406,-3.4073,-3.4118,-3.4136,-3.3919,-3.3918,-3.3918,-3.3917,0,-3.3744,-3.3789,-3.3838,-3.3861,-3.3884,-3.3941,-3.392,-3.3947,-3.3923,-3.3914,-3.398,-3.3984,-3.4016,-3.4034,-3.4011,-3.4113,-3.4092,-3.4052,-3.3987,-3.4099,-3.4141,-3.4158,-3.3927,-3.3925,-3.3923,-3.3922,0,0,-3.3928,-3.3935,-3.3953,-3.3963,-3.3974,-3.4007,-3.4062,-3.4093,-3.4117,-3.4135,-3.4179,-3.4233,-3.4196,-3.4211,-3.419,-3.4231,-3.4338,-3.4186,-3.4185,-3.4213,-3.4449,-3.4479,-3.4499,-3.4314,-3.4317,-3.432,-3.4448,0,-3.4055,-3.4149,-3.4124,-3.4218,-3.4258,-3.4209,-3.4257,-3.4269,-3.4262,-3.4295,-3.4288,-3.4326,-3.4275,-3.4284,-3.4323,-3.4317,-3.4385,-3.4307,-3.4355,-3.4357,-3.4351,-3.4521,-3.4552,-3.4672,-3.4464,-3.4467,-3.4469,0,-3.4216,-3.424,-3.4338,-3.4342,-3.4358,-3.4402,-3.4428,-3.4461,-3.4474,-3.4466,-3.4484,-3.4454,-3.4508,-3.4444,-3.4518,-3.4466,-3.4484,-3.4484,-3.4488,-3.449,-3.4418,-3.4526,-3.471,-3.4728,-3.4494,-3.4492,-3.4491,0,-3.4339,-3.4397,-3.4462,-3.4472,-3.4479,-3.4511,-3.4515,-3.4524,-3.4544,-3.4568,-3.4581,-3.461,-3.4626,-3.465,-3.4628,-3.4584,-3.4705,-3.464,-3.47,-3.47,-3.4726,-3.4724,-3.4914,-3.4741,-3.4741,-3.474,-3.474,0,-3.4483,-3.4545,-3.4517,-3.4558,-3.4625,-3.4597,-3.4664,-3.4663,-3.4671,-3.471,-3.467,-3.4708,-3.4678,-3.4713,-3.4697,-3.476,-3.4768,-3.4763,-3.4757,-3.4765,-3.4766,-3.4775,-3.4766,-3.4745,-3.4744,-3.4743,-3.4742,0,-3.4631,-3.4615,-3.4684,-3.4685,-3.4687,-3.4736,-3.4737,-3.4774,-3.4766,-3.4816,-3.4826,-3.4812,-3.4851,-3.4832,-3.4873,-3.4862,-3.4943,-3.4928,-3.4939,-3.4934,-3.4995,-3.4989,-3.5196,-3.5221,-3.5033,-3.5035,-3.5037,0,-3.4723,-3.4769,-3.4776,-3.4799,-3.4806,-3.4845,-3.4865,-3.4839,-3.4862,-3.4881,-3.4916,-3.4952,-3.4978,-3.5043,-3.5037,-3.5068,-3.5051,-3.5122,-3.5056,-3.5062,-3.5051,-3.5047,-3.5051,-3.5135,-3.5137,-3.5139,-3.514,0,-3.4888,-3.4878,-3.491,-3.4939,-3.4965,-3.4986,-3.5004,-3.5026,-3.5001,-3.5029,-3.5068,-3.5089,-3.5131,-3.5167,-3.5194,-3.5198,-3.5165,-3.5162,-3.5177,-3.5184,-3.5188,-3.5186,-3.4974,-3.5156,-3.5155,-3.5153,-3.5153,-3.5152,-3.501,-3.5048,-3.5059,-3.5095,-3.5107,-3.5125,-3.5159,-3.5155,-3.5188,-3.522,-3.5203,-3.5249,-3.5261,-3.5294,-3.5303,-3.5338,-3.531,-3.5333,-3.5338,-3.5344,-3.5351,-3.5185,-3.5343,-3.5343,-3.5343,-3.5342,-3.5342,0,-3.5171,-3.5176,-3.521,-3.5237,-3.5265,-3.5233,-3.5251,-3.5277,-3.5318,-3.5332,-3.536,-3.5405,-3.544,-3.5437,-3.5468,-3.5497,-3.5483,-3.5506,-3.5503,-3.5504,-3.5375,-3.5358,-3.5518,-3.5518,-3.5518,-3.5518,-3.5517,-3.5517,-3.5259,-3.5322,-3.5314,-3.5382,-3.5386,-3.5431,-3.5444,-3.5461,-3.5472,-3.5524,-3.5553,-3.5551,-3.5558,-3.559,-3.562,-3.5618,-3.5631,-3.566,-3.5652,-3.5531,-3.5514,-3.5497,-3.5481,-3.5663,-3.5664,-3.5778,-3.5779,-3.578]},{"header":{"parameterUnit":"m.s-1","parameterCategory":1,"la1":30.2991,"la2":30.254,"lo1":-89.0895,"lo2":-89.0444,"dy":0.0017,"dx":0.0017,"nx":28,"ny":28,"refTime":"2025-03-07T09:00:00:Z","depth":0,"parameterNumber":3,"parameterNumberName":"V-component_of_WINDS"},"data":[0,0,0,0,0,0,0,0,0,0,0,0,0,0,0,0,0,0,0,0,0,0,0,0,0,0,0,0,0,0,0,0,0,0,0,0,0,0,0,0,0,0,0,0,0,0,0,0,0,0,0,0,0,0,0,0,0,0,0.7645,0.7646,0,0.7734,0.7735,0.7736,0.7764,0.7764,0.7763,0.7763,0.7853,0.7856,0.7859,0,0,0,0,0,0,0,0,0,0,0,0,0,0.7501,0.7503,0.7645,0.7646,0.7647,0.7734,0.7735,0.7736,0.7764,0.7764,0.7763,0.7763,0.7852,0.7856,0.7859,0,0,0,0,0,0,0,0,0,0,0,0,0,0.7574,0.7504,0.7645,0.7672,0.7675,0.7734,0.7735,0.7737,0.7764,0.7764,0.7763,0.7763,0.7851,0.7855,0.7859,0.7898,0,0,0.7872,0.7874,0,0,0,0,0,0,0,0,0.757,0.7579,0.7667,0.767,0.7674,0.7737,0.7717,0.7791,0.7764,0.773,0.7763,0.7762,0.7815,0.7822,0.784,0.7902,0.7906,0.7873,0.7875,0.7877,0.7878,0,0,0,0,0,0,0,0.7565,0.7575,0.768,0.7668,0.7672,0.768,0.7689,0.7731,0.7775,0.7733,0.7736,0.7746,0.7817,0.7836,0.7843,0.7907,0.7872,0.7876,0.7879,0.788,0.8007,0.8008,0,0,0,0,0,0,0.7555,0.7571,0.7678,0.7683,0.7619,0.7683,0.7694,0.7718,0.7775,0.7783,0.7746,0.7747,0.7829,0.7838,0.7846,0.7896,0.7877,0.7881,0.7883,0.8006,0.8007,0.8008,0,0,0,0,0,0,0.7552,0.7564,0.7674,0.7628,0.7642,0.7686,0.7713,0.772,0.7739,0.7785,0.7792,0.7758,0.7829,0.784,0.7885,0.79,0.7883,0.7886,0.8005,0.8007,0.8008,0.7996,0,0,0,0,0,0,0.7547,0.7563,0.7577,0.7628,0.7645,0.7711,0.7713,0.7722,0.7746,0.7748,0.7797,0.7805,0.783,0.7879,0.7889,0.7905,0.789,0.8004,0.8006,0.8007,0.7995,0.7996,0.7998,0,0,0,0,0,0.7542,0.757,0.7578,0.7591,0.7664,0.7712,0.7722,0.7749,0.7747,0.7763,0.7792,0.7803,0.7896,0.7883,0.7895,0.7912,0.8003,0.8005,0.8007,0.7994,0.7996,0.7998,0,0,0,0,0,0,0.7519,0.7577,0.7586,0.7631,0.7667,0.7717,0.7737,0.775,0.7787,0.7787,0.7819,0.783,0.7874,0.7897,0.7882,0.7954,0.795,0.7955,0.7937,0.7939,0.794,0.7933,0.7893,0,0,0,0,0,0.7519,0.7554,0.7602,0.7637,0.7654,0.7693,0.7715,0.7733,0.7771,0.7786,0.7819,0.7855,0.7893,0.7917,0.7954,0.7999,0.8011,0.8017,0.8018,0.8019,0.8022,0.805,0.8054,0.8015,0.8015,0.8015,0,0,0.752,0.7556,0.7575,0.7633,0.7663,0.7699,0.7705,0.7742,0.7769,0.7792,0.7837,0.7862,0.7905,0.7951,0.7973,0.7972,0.8036,0.8021,0.8021,0.8025,0.8052,0.8056,0.8059,0.8016,0.8016,0.8015,0,0,0.7539,0.7569,0.7602,0.7633,0.7678,0.7703,0.7711,0.776,0.7778,0.7824,0.7843,0.7876,0.7939,0.797,0.7993,0.8027,0.8039,0.8038,0.8045,0.8071,0.8074,0.8077,0.8091,0.8095,0.8041,0.8041,0.8041,0,0.7534,0.7588,0.7618,0.7654,0.768,0.7704,0.7738,0.7766,0.7821,0.7838,0.7837,0.7919,0.7949,0.8003,0.8012,0.803,0.8041,0.8032,0.8072,0.8075,0.8078,0.8091,0.8096,0.8041,0.8041,0.8041,0.8041,0,0.7581,0.7618,0.764,0.7693,0.7721,0.7756,0.7792,0.7817,0.7834,0.786,0.7907,0.7945,0.7991,0.8005,0.8021,0.8062,0.8061,0.8065,0.8063,0.8081,0.8094,0.8099,0.804,0.8041,0.8041,0.8041,0,0,0.7587,0.7658,0.7665,0.7691,0.7743,0.7773,0.781,0.7856,0.7878,0.7915,0.7948,0.8002,0.8007,0.8034,0.8054,0.8077,0.8104,0.8079,0.8081,0.8083,0.8153,0.815,0.8156,0.8112,0.8113,0.8114,0.815,0,0.7614,0.7681,0.771,0.7765,0.7801,0.7824,0.7857,0.7893,0.7919,0.7954,0.7982,0.8021,0.8023,0.804,0.8064,0.8095,0.8118,0.8093,0.8144,0.8145,0.8133,0.8162,0.8159,0.8192,0.8155,0.8156,0.8157,0,0.7654,0.7693,0.7752,0.7802,0.7818,0.7847,0.7892,0.7925,0.7967,0.7984,0.8015,0.8035,0.8076,0.807,0.8128,0.811,0.8133,0.8151,0.8153,0.8159,0.8153,0.8171,0.8202,0.8208,0.8165,0.8164,0.8164,0,0.7655,0.7722,0.7766,0.7787,0.7846,0.7866,0.7892,0.7934,0.796,0.8,0.8018,0.8061,0.8085,0.8119,0.815,0.8143,0.8205,0.8202,0.8221,0.8221,0.8234,0.8233,0.8271,0.8246,0.8246,0.8246,0.8246,0,0.7683,0.7718,0.7767,0.7794,0.7835,0.7868,0.7908,0.7935,0.7972,0.8006,0.8029,0.806,0.8098,0.8135,0.8159,0.8204,0.8214,0.823,0.8237,0.8229,0.8227,0.8245,0.8244,0.8248,0.8247,0.8247,0.8247,0,0.769,0.7725,0.7775,0.7828,0.7842,0.7869,0.7915,0.7943,0.797,0.8013,0.8025,0.8068,0.8112,0.8146,0.8203,0.822,0.8268,0.8274,0.8254,0.8257,0.8276,0.8274,0.8327,0.8336,0.8304,0.8305,0.8305,0,0.7706,0.7734,0.779,0.7815,0.7841,0.7879,0.7907,0.7941,0.7969,0.802,0.8042,0.8088,0.8127,0.8197,0.8233,0.8278,0.8286,0.8301,0.8292,0.8285,0.8288,0.8286,0.829,0.8303,0.8303,0.8303,0.8303,0,0.7731,0.7747,0.7786,0.7832,0.7864,0.7901,0.7939,0.7958,0.7999,0.803,0.8076,0.8106,0.8165,0.8211,0.8259,0.8286,0.8302,0.8306,0.8313,0.8306,0.8293,0.8302,0.8258,0.8304,0.8304,0.8304,0.8304,0.8304,0.7744,0.7771,0.7815,0.7859,0.7891,0.7926,0.7956,0.7988,0.8027,0.8078,0.8096,0.8144,0.8187,0.8254,0.8282,0.832,0.8321,0.8331,0.8334,0.8336,0.8336,0.8287,0.8329,0.8329,0.8329,0.8329,0.8329,0,0.7771,0.7802,0.7841,0.7894,0.7929,0.7941,0.7984,0.8012,0.8054,0.8093,0.8132,0.8186,0.8231,0.8272,0.8319,0.8342,0.8351,0.8353,0.8352,0.8359,0.8332,0.8322,0.8346,0.8346,0.8346,0.8346,0.8346,0.8346,0.779,0.7836,0.7858,0.7922,0.7952,0.7999,0.8023,0.8057,0.8089,0.8148,0.8186,0.8212,0.8253,0.8304,0.8346,0.8357,0.8374,0.8376,0.8388,0.8363,0.836,0.8358,0.8349,0.8379,0.8379,0.8413,0.8413,0.8413]}]]